Location: Caltech
(34.1382°N, 118.1253°W)
Time: 14:37:22
(UTC-07:00)

Iridium 91 - Visible Passes

Search period start: 31 July 2014 00:00
Search period end: 10 August 2014 00:00
Orbit: 775 x 780 km, 86.4° (Epoch: 31 July)

Date Brightness Start Highest point End Pass type
(mag) Time Alt. Az. Time Alt. Az. Time Alt. Az.
31 Jul 6.8 04:16:31 10° SSE 04:21:19 40° E 04:26:08 10° NNE visible
01 Aug 7.8 03:44:14 10° SE 03:48:01 21° E 03:51:48 10° NE visible
01 Aug 6.2 05:23:41 10° SSW 05:28:25 35° W 05:33:11 10° NNW visible
02 Aug 8.5 03:14:15 10° E 03:14:50 10° ENE 03:15:25 10° ENE visible
02 Aug 5.5 04:49:39 10° S 04:54:49 70° W 05:00:01 10° N visible
03 Aug 6.0 04:16:36 12° SSE 04:21:20 60° E 04:26:27 10° N visible
04 Aug 7.2 03:43:44 11° SE 03:47:58 31° E 03:52:28 10° NNE visible
04 Aug 6.7 05:24:28 10° SW 05:28:37 24° W 05:32:48 10° NNW visible
05 Aug 8.1 03:11:39 10° ESE 03:14:43 16° E 03:17:47 10° NE visible
05 Aug 5.8 04:51:21 18° SSW 04:54:57 46° W 04:59:57 10° NNW visible
06 Aug 5.4 04:18:25 26° S 04:21:24 90° E 04:26:37 10° N visible
07 Aug 6.4 03:45:28 26° SE 03:47:58 46° E 03:52:54 10° NNE visible
07 Aug 7.1 05:25:58 11° WSW 05:28:53 16° WNW 05:32:04 10° NW visible
08 Aug 7.5 03:12:30 18° ESE 03:14:38 24° E 03:18:42 10° NNE visible
08 Aug 6.3 04:53:00 23° WSW 04:55:08 31° W 04:59:43 10° NNW visible
09 Aug 8.2 02:39:31 10° E 02:41:26 12° E 02:43:20 10° ENE visible
09 Aug 5.5 04:20:00 43° SW 04:21:30 61° W 04:26:39 10° N visible
